シェパード-ソーレン彗星

C/2015 T5 ( Sheppard-Tholen )

English version
Home page
Updated on November 13, 2016

---------------------------------------------------------------------

・ プロフィール

発見日 2015年10月13日
発見光度 21.6等
発見者 S. Sheppard, D. J. Tholen, C. Trujillo (University of Hawaii)

・ 軌道要素

Epoch 2016 Jan. 13.0 TT = JDT 2457400.5
T 2016 Jan. 24.69500 TT                                 MPCW
q   9.3384534            (2000.0)            P               Q
n   0.00666462     Peri.   61.84832     +0.96191658     -0.23220802
a  27.9652774      Node   311.19148     +0.12992505     +0.85257487
e   0.6660697      Incl.   11.04823     +0.24049112     +0.46818321
P 148
From 22 observations 2015 Oct. 13-2016 Nov. 4, mean residual 0".3.

・ 光度変化

        m1 = 7.5 + 5 logΔ + 10.0 log r

---------------------------------------------------------------------

軌道要素はM.P.E.C. 2016-V116に掲載されたものです。
光度グラフはComet for Windowsで作成したものです。

---------------------------------------------------------------------

Copyright(C) Seiichi Yoshida (comet@aerith.net). All rights reserved.